Regional Weather Roundup
Issued by NWS Grand Forks, ND

Home | Current Version | Previous Version | Text Only | Print | Product List | Glossary Off
Versions: 1 2 3 4 5 6 7 8 9 10 11 12 13 14 15 16 17 18 19 20 21 22 23 24 25 26 27 28 29 30 31 32 33 34 35 36 37 38 39 40 41 42 43 44 45 46 47 48 49 50

000
ASUS43 KFGF 271910
RWRFGF
PRAIRIE TO PINES  WEATHER ROUNDUP
NATIONAL WEATHER SERVICE EASTERN NORTH DAKOTA/GRAND FORKS ND
200 PM CDT SUN JUL 27 2014

 **SATELLITE DATA USED TO AUGMENT SKY COVER AT AUTOMATED STATIONS**
 *****  WEATHER ACROSS EASTERN NORTH DAKOTA  *****

CITY           SKY/WX    TMP DP  RH WIND       PRES   REMARKS
GRAND FORKS    CLOUDY    65  56  72 N15G21    30.13R
GRAND FRKS AFB CLOUDY    66  58  75 NW18      30.15R
GRAND FRKS NWS   N/A     64 N/A N/A MISG        N/A
DEVILS LAKE    CLOUDY    64  52  63 N16G22    30.18S
FARGO          CLOUDY    66  56  70 NW17      30.12R
WAHPETON ARPT  CLOUDY    64  54  68 NW16G26   30.11R
$$

 ***** WEATHER ACROSS CENTRAL AND WESTERN NORTH DAKOTA  *****

CITY           SKY/WX    TMP DP  RH WIND       PRES   REMARKS
BISMARCK       CLOUDY    67  52  58 NW16      30.26F
MINOT          CLOUDY    65  51  60 NW13      30.26S
JAMESTOWN      CLOUDY    64  55  72 NW16      30.19R
MINOT AFB      CLOUDY    67  51  56 NW12      30.26S
GARRISON         N/A     65  52  62 N12       30.28R
WILLISTON      CLOUDY    68  51  54 VRB7      30.31S
DICKINSON      CLOUDY    66  51  58 N6        30.29F
HETTINGER      PTSUNNY   71  53  52 N13G23    30.30F
$$

 *****  OTHER AIRPORT OBSERVATIONS IN OUR AREA  *****

CITY           SKY/WX    TMP DP  RH WIND       PRES   REMARKS
WALHALLA         N/A     68  57  68 N14         N/A
GRAFTON AIRPOR CLOUDY    64  55  72 N12       30.15R
VALLEY CITY AR CLOUDY    66  57  72 N20G26    30.16S
CANDO          CLOUDY    63  54  72 N13       30.22S
CAVALIER APRT  CLOUDY    66  55  68 N13       30.16S
GWINNER        CLOUDY    66  57  72 N15G22    30.16S
ROLLA          CLOUDY    63  54  72 N16G22    30.25R
 ***** THE ABOVE OBSERVATIONS ARE NON NWS ARE NOT QUALITY
       CONTROLLED AND MAY MIS-REPORT RAIN FOR SNOW...
$$

  *****  WEATHER ACROSS NORTHERN MINNESOTA  *****

CITY           SKY/WX    TMP DP  RH WIND       PRES   REMARKS
FLAG ISLAND    PTSUNNY   66  52  59 N14       30.10R
WARROAD        PTSUNNY   66  57  72 N15G22    30.12R
ROSEAU         MOSUNNY   66  59  77 N12       30.11R
HALLOCK        MOSUNNY   66  57  72 N13       30.14R
THF RVR FALLS  CLOUDY    64  55  72 N15       30.11S
BAUDETTE       CLOUDY    64  54  69 N9        30.10R
WASKISH        CLOUDY    64  59  82 NE7       30.06R
CROOKSTON      CLOUDY    63  57  82 N15G21    30.13R
$$
  *****  WEATHER ACROSS CENTRAL AND WEST MINNESOTA  *****

CITY           SKY/WX    TMP DP  RH WIND       PRES   REMARKS
FOSSTON        CLOUDY    64  57  77 N15       30.09R
BEMIDJI        LGT RAIN  62  60  92 N8        30.05R
PARK RAPIDS    PTSUNNY   71  58  63 N18       30.03R
ELBOW LAKE     CLOUDY    65  58  79 N17G24    30.08R
WADENA         LGT RAIN  66  59  77 NW17G23   30.04R
DETROIT LAKES  PTSUNNY   63  59  88 NW16      30.10R
MOORHEAD       CLOUDY    64  61  88 N14G20    30.13R
FERGUS FALLS   CLOUDY    66  55  68 NW18G26   30.09R
MORRIS MN      MOSUNNY   66  57  72 N18G24    30.08R
STAPLES        PTSUNNY   70  55  60 N14       30.02R
$$
  *****  WEATHER ELSEWHERE ACROSS MINNESOTA  *****

CITY           SKY/WX    TMP DP  RH WIND       PRES   REMARKS
DULUTH         CLOUDY    60  55  83 E15G23    29.97R
INTRNTL FALLS  CLOUDY    67  54  63 N13G23    30.05R
ELY            CLOUDY    61  54  77 N6        30.01R
CLOQUET        RAIN      57  55  94 E9        29.98R
WHEATON        NOT AVBL
BRAINERD       PTSUNNY   70  57  63 N17       29.99R
HIBBING        CLOUDY    66  56  70 N14       30.00R
ALEXANDRIA     CLOUDY    70  57  63 NW21G30   30.06R
SAINT CLOUD    PTSUNNY   73  58  59 NW9G21    29.96R
MINNEAPOLIS    MOSUNNY   76  56  49 NW16G25   29.92R
$$

  *****  WEATHER ACROSS SOUTH DAKOTA  *****

CITY           SKY/WX    TMP DP  RH WIND       PRES   REMARKS
SIOUX FALLS    PTSUNNY   71  57  61 N17G25    30.13R
BROOKINGS      NOT AVBL
WATERTOWN      CLOUDY    63  54  72 NW21      30.15R
HURON          CLOUDY    70  55  59 N18       30.17R
SISSETON         N/A     67  58  72 N23       30.11R
ABERDEEN       CLOUDY    68  55  63 N22       30.18S
MITCHELL       MOSUNNY   73  58  59 N18G25    30.17S
PIERRE         MOSUNNY   77  55  46 N18G24    30.21F
MOBRIDGE       PTSUNNY   71  55  56 NW16G24   30.22S
RAPID CITY     SUNNY     78  50  37 N13G23    30.30F
$$

  *****  SOME WEATHER IN NEARBY STATES *****

CITY           SKY/WX    TMP DP  RH WIND       PRES   REMARKS
GLASGOW MT     MOSUNNY   76  51  41 VRB6      30.27F
GREAT FALLS MT SUNNY     81  40  23 E8        30.26F
CHEYENNE WY    PTSUNNY   72  55  55 SE13G20   30.42F
SCOTTSBLUFF NE PTSUNNY   80  46  30 SE7       30.33F
OMAHA NE       MOSUNNY   82  55  39 NW24G31   30.08F
DES MOINES IA  PTSUNNY   78  57  48 NW24G32   30.00R
DAVENPORT IA   MOSUNNY   76  58  53 NW25G35   29.86S
CHICAGO IL     MOSUNNY   85  54  34 W22G30    29.71S
EAU CLAIRE WI  PTSUNNY   75  59  57 N14G23    29.84R
LA CROSSE WI   PTSUNNY   74  59  59 NW15      29.83S
$$

  *****  SOME NATIONAL WEATHER *****

CITY           SKY/WX    TMP DP  RH WIND       PRES   REMARKS
LA GUARDIA NY  PTSUNNY   86  66  51 SW12      29.71F
RALEIGH NC     PTSUNNY   83  73  72 SW7       29.92F
ATLANTA GA     MOSUNNY   90  71  53 SW12G17   30.01F HX  96
NEW ORLEANS LA MOSUNNY   92  73  53 W9        30.07F HX 100
OKLAHOMA CITY  PTSUNNY   94  69  44 NE8       30.04S HX  99
ALBUQUERQUE NM MOSUNNY   92  50  23 N12       30.23F
SALT LAKE CITY PTSUNNY   93  37  14 SE7       30.16F
LOS ANGELES CA PTSUNNY   73  63  70 SW6       30.03S
BOISE ID       SUNNY     89  38  16 W6        30.11F
SEATTLE WA     MOSUNNY   74  54  49 N8        30.17F
$$

*** WEATHER ACROSS MANITOBA...SASKATCHEWAN AND ONTARIO ***
                ***ONTARIO***

CITY           SKY/WX    TMP DP  RH WIND       PRES   REMARKS
GERALDTON      PTSUNNY   61  45  55 NE12      29.95S
THUNDER BAY    PTSUNNY   68  50  52 NE10G18   29.93R
SIOUX LOOKOUT  CLOUDY    66  50  55 N6        30.07R
TORONTO        PTSUNNY   84  61  45 W15G23    29.67F
BIG TROUT LK     N/A     68  48  49 MISG      30.07S
PICKLE LAKE    PTSUNNY   66  46  48 N10G18    30.07S
DRYDEN         MOSUNNY   66  50  55 NE10      30.08R
KENORA         PTSUNNY   66  50  55 N9        30.12R
$$
                *** MANITOBA***

CITY           SKY/WX    TMP DP  RH WIND       PRES   REMARKS
BRANDON        CLOUDY    63  52  67 N8        30.26R
DAUPHIN        PTSUNNY   70  52  52 NE12      30.25R
ISLAND LAKE    MOSUNNY   68  52  56 NW6       30.18F
PILOT MOUND      N/A     64  52  63 N13G20      N/A
THE PAS        MOSUNNY   68  46  45 NW3       30.28S
THOMPSON       MOSUNNY   75  50  41 N5        30.22F
WINNIPEG       MOSUNNY   70  52  52 N14G23    30.17R
LYNN LAKE      SUNNY     73  39  29 NW8       30.27F
CHURCHILL      PTSUNNY   72  54  53 NW12G18   30.11F
GILLAM         PTSUNNY   77  50  38 N9G21     30.14F
$$
                ***SASKATCHEWAN***

CITY           SKY/WX    TMP DP  RH WIND       PRES   REMARKS
ESTEVAN        PTSUNNY   66  52  59 NW7       30.30S
KINDERSLEY     MOSUNNY   68  55  64 N3        30.27S
LLOYDMINSTER   PTSUNNY   66  57  72 S6        30.24F
PRINCE ALBERT  PTSUNNY   64  54  68 SE7       30.29S
REGINA         PTSUNNY   66  55  68 SE3       30.29F
YORKTON        CLOUDY    64  50  59 VRB7      30.29S
N. BATTLEFORD    N/A     68  61  77 SE7       30.28S
LA RONGE       MOSUNNY   68  48  49 SE12      30.28F
SASKATOON      CLOUDY    66  57  72 SE7       30.29S
SWIFT CURRENT  MOSUNNY   68  54  60 VRB3      30.27F
$$
NOTE: THESE ARE AUTOMATED STATIONS WITH LIMITED QUALITY CONTROL
      "FAIR" INDICATES FEW OR NO CLOUDS BELOW 12,000 FEET WITH NO
      SIGNIFICANT WEATHER AND/OR OBSTRUCTIONS TO VISIBILITY.
      SKY/WX - SKY CONDITION AND SIGNIFICANT WEATHER.
      TMP - AIR TEMPERATURE.    DP   - DEWPOINT TEMPERATURE.
      RH  - RELATIVE HUMIDITY.  PRES - PRESSURE.
      HX  - HEAT INDEX.         WCI  - WIND CHILL INDEX.
$


USA.gov is the U.S. government's official web portal to all federal, state and local government web resources and services.